Weather reports worldwide

Advertisment
Almeria, Spain (8487): temperature & dewpoint: 08.11.2018 13:00:00 - 14.11.2018 13:00:00 (CET)Almeria, Spain (8487): wind speed: 08.11.2018 13:00:00 - 14.11.2018 13:00:00 (CET)Almeria, Spain (8487): wind direction: 08.11.2018 13:00:00 - 14.11.2018 13:00:00 (CET)Almeria, Spain (8487): reduced air pressure: 08.11.2018 13:00:00 - 14.11.2018 13:00:00 (CET)Almeria, Spain (8487): visibility: 08.11.2018 13:00:00 - 14.11.2018 13:00:00 (CET)
Date & Time tt [°C] td [°C] ff [km/h] ff [kn] dd ppp [hPa] vv [km]
14.11.2018 13:00:00 21,2 13,9 31 17 NE 1018,6 40
14.11.2018 12:00:00 20,9 14,1 39 21 NE 1019,6 -
14.11.2018 11:00:00 21,0 13,8 35 19 NE 1020,0 -
14.11.2018 10:00:00 19,6 13,5 37 20 NE 1020,0 40
14.11.2018 09:00:00 19,6 13,5 37 20 NE 1019,9 -
14.11.2018 08:00:00 19,3 13,0 29 16 NE 1019,6 -
14.11.2018 07:00:00 19,4 12,9 34 18 NE 1019,5 45
14.11.2018 06:00:00 19,8 12,5 18 10 NE 1019,7 -
14.11.2018 05:00:00 20,1 11,3 35 19 NE 1019,4 -
14.11.2018 04:00:00 20,4 11,6 29 16 NE 1019,7 -
14.11.2018 03:00:00 20,6 11,0 29 16 NE 1020,3 -
14.11.2018 02:00:00 20,2 11,9 28 15 NE 1020,8 -
14.11.2018 01:00:00 20,2 11,5 11 6 N 1021,4 -
14.11.2018 00:00:00 19,4 12,6 21 11 NE 1022,0 -
13.11.2018 23:00:00 18,9 12,9 8 4 N 1022,0 -
13.11.2018 22:00:00 19,1 12,3 9 5 NNE 1021,7 40
13.11.2018 21:00:00 17,9 12,7 4 2 NNE 1021,5 -
13.11.2018 20:00:00 19,0 13,2 15 8 ENE 1021,5 -
13.11.2018 19:00:00 18,6 13,7 21 11 ENE 1021,6 40
13.11.2018 18:00:00 19,6 13,8 29 16 ENE 1020,9 -
13.11.2018 17:00:00 20,5 13,9 37 20 NE 1020,3 -
13.11.2018 16:00:00 21,3 13,7 34 18 ENE 1020,1 40
13.11.2018 15:00:00 21,8 13,7 34 18 NE 1019,8 -
13.11.2018 14:00:00 22,4 12,9 35 19 NE 1019,8 -
13.11.2018 13:00:00 21,8 13,0 29 16 NE 1020,9 45
13.11.2018 12:00:00 22,2 12,2 29 16 ENE 1021,2 -
13.11.2018 11:00:00 21,5 11,9 28 15 ENE 1021,4 -
13.11.2018 10:00:00 18,9 10,6 11 6 NNW 1021,2 50
13.11.2018 09:00:00 16,1 9,4 13 7 N 1020,7 -
13.11.2018 08:00:00 15,1 9,0 21 11 NNW 1020,0 -
13.11.2018 07:00:00 14,8 9,8 21 11 NNW 1019,4 40
13.11.2018 06:00:00 14,7 10,7 16 9 NNW 1019,1 -
13.11.2018 05:00:00 14,7 10,9 16 9 NNW 1018,9 -
13.11.2018 04:00:00 15,5 11,1 18 10 NNW 1018,6 -
13.11.2018 03:00:00 15,4 11,6 13 7 NNW 1018,5 -
13.11.2018 02:00:00 15,6 11,8 13 7 NW 1018,5 -
13.11.2018 01:00:00 14,7 11,9 9 5 N 1018,2 -
13.11.2018 00:00:00 15,0 12,5 9 5 N 1018,4 -
12.11.2018 23:00:00 15,1 12,6 5 3 NNE 1018,0 -
12.11.2018 22:00:00 15,8 12,8 11 6 N 1018,2 20
12.11.2018 21:00:00 15,8 13,3 9 5 NNE 1017,7 -
12.11.2018 20:00:00 15,1 13,1 8 4 NNE 1017,1 -
12.11.2018 19:00:00 16,7 14,7 9 5 WNW 1016,4 15
12.11.2018 18:00:00 17,5 15,1 11 6 SW 1016,0 -
12.11.2018 17:00:00 19,2 14,2 4 2 WSW 1014,9 -
12.11.2018 16:00:00 18,8 15,4 11 6 SW 1015,1 30
12.11.2018 15:00:00 19,1 15,2 11 6 SSW 1015,0 -
12.11.2018 14:00:00 19,1 14,6 11 6 SW 1014,9 -
12.11.2018 13:00:00 19,6 13,9 9 5 S 1015,1 30
12.11.2018 12:00:00 19,5 11,8 4 2 ENE 1015,8 -
12.11.2018 11:00:00 18,1 9,2 8 4 NNW 1015,9 -
12.11.2018 10:00:00 15,5 11,4 4 2 N 1015,8 25
12.11.2018 09:00:00 12,8 10,5 4 2 ESE 1015,4 -
12.11.2018 08:00:00 11,3 9,3 9 5 NNW 1014,5 -
12.11.2018 07:00:00 11,1 9,0 9 5 N 1014,0 40
12.11.2018 06:00:00 10,6 9,0 8 4 NNE 1014,0 -
12.11.2018 05:00:00 11,1 9,4 5 3 N 1013,7 -
12.11.2018 04:00:00 11,6 10,0 9 5 N 1013,7 -
12.11.2018 03:00:00 11,3 9,6 4 2 NNE 1014,2 -
12.11.2018 02:00:00 11,3 10,0 5 3 NNW 1014,0 -
12.11.2018 01:00:00 11,8 10,9 2 1 E 1014,0 -
12.11.2018 00:00:00 13,4 12,9 11 6 NNW 1013,9 -
11.11.2018 23:00:00 13,7 12,4 9 5 NW 1014,7 -
11.11.2018 22:00:00 13,1 11,5 8 4 W 1014,2 50
11.11.2018 21:00:00 14,3 12,0 8 4 NNE 1013,8 -
11.11.2018 20:00:00 14,1 12,8 4 2 NE 1014,0 -
11.11.2018 19:00:00 15,5 14,4 4 2 WNW 1013,8 50
11.11.2018 18:00:00 17,3 14,9 4 2 S 1013,7 -
11.11.2018 17:00:00 18,2 15,4 9 5 SW 1014,0 -
11.11.2018 16:00:00 18,8 15,7 9 5 SSE 1013,8 50
11.11.2018 15:00:00 19,0 15,6 8 4 S 1014,3 -
11.11.2018 14:00:00 18,8 15,7 9 5 S 1015,3 -
11.11.2018 13:00:00 18,6 14,9 9 5 SSW 1016,3 50
11.11.2018 12:00:00 18,6 13,2 8 4 S 1017,2 -
11.11.2018 11:00:00 18,1 11,6 11 6 S 1017,3 -
11.11.2018 10:00:00 16,8 9,9 4 2 N 1017,5 50
11.11.2018 09:00:00 14,7 11,1 8 4 NNW 1017,5 -
11.11.2018 08:00:00 12,8 12,5 11 6 N 1017,0 -
11.11.2018 07:00:00 11,1 10,3 4 2 NE 1016,9 50
11.11.2018 06:00:00 11,6 10,8 4 2 NW 1016,5 -
11.11.2018 05:00:00 12,2 11,1 8 4 N 1016,3 -
11.11.2018 04:00:00 11,7 10,8 0 0 N 1016,7 -
11.11.2018 03:00:00 12,8 12,0 8 4 NNE 1016,9 -
11.11.2018 02:00:00 13,2 12,3 8 4 NNE 1016,9 -
11.11.2018 01:00:00 13,0 11,7 8 4 N 1017,1 -
11.11.2018 00:00:00 13,7 12,4 8 4 NNE 1017,2 -
10.11.2018 23:00:00 14,1 12,8 5 3 NNE 1017,3 -
10.11.2018 22:00:00 14,2 12,9 8 4 NNE 1017,3 50
10.11.2018 21:00:00 14,8 13,1 4 2 SW 1017,0 -
10.11.2018 20:00:00 15,9 13,7 8 4 WSW 1016,8 -
10.11.2018 19:00:00 16,4 13,9 16 9 SW 1016,5 50
10.11.2018 18:00:00 16,9 14,0 16 9 SW 1016,3 -
10.11.2018 17:00:00 18,3 11,6 9 5 SSW 1016,0 -
10.11.2018 16:00:00 17,6 13,7 15 8 SSW 1016,2 50
10.11.2018 15:00:00 17,8 13,2 18 10 SW 1016,5 -
10.11.2018 14:00:00 18,0 13,1 16 9 SSW 1017,0 -
10.11.2018 13:00:00 17,9 12,0 8 4 SSW 1017,9 50
10.11.2018 12:00:00 17,6 10,2 8 4 S 1018,7 -
10.11.2018 11:00:00 17,9 7,7 11 6 SSW 1019,0 -
10.11.2018 10:00:00 16,9 5,5 5 3 W 1019,1 50
10.11.2018 09:00:00 13,8 4,9 11 6 NW 1018,9 -
10.11.2018 08:00:00 12,6 4,5 13 7 NW 1018,6 -
10.11.2018 07:00:00 12,5 4,2 11 6 NW 1018,5 50
10.11.2018 06:00:00 12,7 4,1 11 6 NW 1018,5 -
10.11.2018 05:00:00 11,7 4,9 11 6 NNW 1018,3 -
10.11.2018 04:00:00 11,7 4,4 11 6 N 1018,6 -
10.11.2018 03:00:00 12,3 6,5 4 2 ENE 1018,7 -
10.11.2018 02:00:00 14,0 6,1 8 4 N 1018,6 -
10.11.2018 01:00:00 14,7 5,9 13 7 NNE 1019,2 -
10.11.2018 00:00:00 13,7 8,1 9 5 NNE 1019,8 -
09.11.2018 23:00:00 14,5 9,9 11 6 N 1020,1 -
09.11.2018 22:00:00 13,9 10,9 11 6 NE 1020,0 30
09.11.2018 21:00:00 14,0 9,4 11 6 NNE 1020,0 -
09.11.2018 20:00:00 14,1 10,9 11 6 NE 1019,8 -
09.11.2018 19:00:00 15,0 11,0 5 3 NNW 1019,0 30
09.11.2018 18:00:00 16,3 12,6 15 8 WSW 1018,4 -
09.11.2018 17:00:00 16,9 12,6 16 9 SW 1018,1 -
09.11.2018 16:00:00 18,0 12,6 18 10 SW 1018,0 40
09.11.2018 15:00:00 18,6 12,1 22 12 SSW 1018,1 -
09.11.2018 14:00:00 18,7 10,9 21 11 SSW 1018,5 -
09.11.2018 13:00:00 18,4 10,4 22 12 SSW 1018,9 40
09.11.2018 12:00:00 20,3 8,0 18 10 W 1019,5 -
09.11.2018 11:00:00 19,1 1,6 18 10 WNW 1019,6 -
09.11.2018 10:00:00 17,6 0,8 37 20 WNW 1019,8 50
09.11.2018 09:00:00 15,7 1,3 26 14 NW 1019,6 -
09.11.2018 08:00:00 14,6 1,1 26 14 WNW 1019,0 -
09.11.2018 07:00:00 15,6 -0,5 28 15 WNW 1018,7 50
09.11.2018 06:00:00 14,5 3,6 9 5 W 1017,8 -
09.11.2018 05:00:00 14,6 5,3 11 6 W 1017,3 -
09.11.2018 04:00:00 15,3 6,3 13 7 NW 1016,7 -
09.11.2018 03:00:00 15,8 7,9 16 9 NNW 1016,9 -
09.11.2018 02:00:00 15,6 14,0 31 17 SW 1016,3 -
09.11.2018 01:00:00 15,6 14,3 26 14 WSW 1016,7 -
09.11.2018 00:00:00 15,9 14,9 31 17 SW 1016,9 -
08.11.2018 23:00:00 15,9 14,4 26 14 WSW 1016,9 -
08.11.2018 22:00:00 16,2 14,2 26 14 WSW 1016,8 40
08.11.2018 21:00:00 15,8 14,7 15 8 WSW 1016,8 -
08.11.2018 20:00:00 15,7 15,1 15 8 SW 1016,3 -
08.11.2018 19:00:00 15,8 15,3 16 9 SW 1016,3 20
08.11.2018 18:00:00 16,0 15,0 15 8 SSW 1016,0 -
08.11.2018 17:00:00 17,1 15,1 13 7 SSW 1016,4 -
08.11.2018 16:00:00 18,0 14,2 8 4 S 1016,4 40
08.11.2018 15:00:00 18,2 14,1 11 6 S 1016,8 -
08.11.2018 14:00:00 18,8 15,1 11 6 S 1017,5 -
08.11.2018 13:00:00 18,7 14,6 11 6 S 1018,3 40

tt = temperature
td = dewpoint
ff = wind speed
dd = wind direction
ppp = reduced air pressure
vv = visibility

Next stations